Regional Weather Roundup
Issued by NWS

Home | Current Version | Previous Version | Graphics & Text | Print | Product List | Glossary On
Versions: 1 2 3 4 5 6 7 8 9 10 11 12 13 14 15 16 17 18 19 20 21 22 23 24 25 26 27 28 29 30 31 32 33 34 35 36 37 38 39 40 41 42 43 44 45 46 47 48 49 50
000
ASUS43 KTOP 030608
RWRKS

WEATHER ROUNDUP FOR KANSAS
NATIONAL WEATHER SERVICE GOODLAND KS
100 AM CDT SUN MAY 03 2015

NOTE:  "FAIR" INDICATES FEW OR NO CLOUDS BELOW 12,000 FEET WITH NO
SIGNIFICANT WEATHER AND/OR OBSTRUCTIONS TO VISIBILITY.

KSZ001>006-013>018-027>032-041>047-030700-
NORTHWEST KANSAS

CITY           SKY/WX    TMP DP  RH WIND       PRES   REMARKS
GOODLAND       CLOUDY    62  44  51 W14       29.86F
6HR MIN TEMP:  62; 6HR MAX TEMP:  78;

HAYS           CLOUDY    70  48  46 SW16G25   29.80R
HILL CITY      MOCLDY    68  48  48 SW7       29.77S
6HR MIN TEMP:  65; 6HR MAX TEMP:  83;

RUSSELL        CLOUDY    69  52  54 S17       29.78R
6HR MIN TEMP:  69; 6HR MAX TEMP:  84;

$$

KSZ061>065-074>080-084>089-030700-
SOUTHWEST KANSAS

CITY           SKY/WX    TMP DP  RH WIND       PRES   REMARKS
DODGE CITY     CLOUDY    66  49  54 S12       29.85R
6HR MIN TEMP:  66; 6HR MAX TEMP:  83;

ELKHART          N/A     60  42  51 S3          N/A
GARDEN CITY    CLOUDY    61  44  53 S5        29.83F
6HR MIN TEMP:  61; 6HR MAX TEMP:  82;

GREAT BEND     CLOUDY    68  52  56 S18G24    29.80S
LIBERAL        CLOUDY    68  45  42 S9        29.89F
PRATT          CLOUDY    64  52  63 S18       29.85F
$$

KSZ066>073-081>083-090>101-030700-
SOUTHEAST KANSAS

CITY           SKY/WX    TMP DP  RH WIND       PRES   REMARKS
CHANUTE        CLEAR     62  53  72 S8        29.92S
6HR MIN TEMP:  62; 6HR MAX TEMP:  75;

COFFEYVILLE    LGT RAIN  62  54  74 S8        29.93S
6HR MIN TEMP:  62; 6HR MAX TEMP:  76; 6HR PCP: TRACE;

HUTCHINSON     PTCLDY    70  54  56 S16G24    29.84F
6HR MIN TEMP:  69; 6HR MAX TEMP:  80;

MEDICINE LODGE   N/A     65  56  72 S7        29.86F
NEWTON         PTCLDY    66  52  59 S13       29.88F
PARSONS        CLEAR     65  54  67 S7        29.94S
6HR MIN TEMP:  65; 6HR MAX TEMP:  76;

WICHITA INTL   MOCLDY    66  55  67 S15       29.86F
6HR MIN TEMP:  66; 6HR MAX TEMP:  78;

WICHITA JABRA  MOCLDY    68  54  60 S14       29.87S
6HR MIN TEMP:  67; 6HR MAX TEMP:  77;

WICHITA MCCONL MOCLDY    67  55  66 S15       29.87F
WINFIELD       MOCLDY    66  56  70 S13       29.90S
6HR MIN TEMP:  65; 6HR MAX TEMP:  77;

$$

KSZ007>012-019>026-033>040-048>060-102>105-030700-
NORTHEAST KANSAS

CITY           SKY/WX    TMP DP  RH WIND       PRES   REMARKS
CONCORDIA      PTCLDY    68  54  60 S20       29.78S
6HR MIN TEMP:  68; 6HR MAX TEMP:  81;

EMPORIA        MOCLDY    62  52  69 S13       29.87F
6HR MIN TEMP:  62; 6HR MAX TEMP:  76;

LAWRENCE       CLOUDY    67  52  58 S10       29.87F
6HR MIN TEMP:  63; 6HR MAX TEMP:  75;

MANHATTAN      MOCLDY    70  54  56 S12       29.82S
6HR MIN TEMP:  69; 6HR MAX TEMP:  80; 6HR PCP: TRACE;

MARYSVILLE     CLOUDY    68  54  60 S13       29.81R
OLATHE IND     CLOUDY    65  52  62 S14       29.90S
6HR MIN TEMP:  64; 6HR MAX TEMP:  74;

OLATHE EXE     CLOUDY    65  53  65 S10       29.89S
6HR MIN TEMP:  64; 6HR MAX TEMP:  74;

SALINA         PTCLDY    71  54  54 S18G28    29.80F
6HR MIN TEMP:  70; 6HR MAX TEMP:  80;

TOPEKA BILLARD CLOUDY    67  53  61 S8        29.86S
6HR MIN TEMP:  67; 6HR MAX TEMP:  76;

TOPEKA FORBES  MOCLDY    66  53  63 S13       29.85S
6HR MIN TEMP:  66; 6HR MAX TEMP:  77;

$$



USA.gov is the U.S. government's official web portal to all federal, state and local government web resources and services.